TimeCST,TemperatureF,Dew PointF,Humidity,Sea Level PressureIn,VisibilityMPH,Wind Direction,Wind SpeedMPH,Gust SpeedMPH,PrecipitationIn,Events,Conditions,WindDirDegrees,DateUTC
12:58 AM,37.2,31.1,79,30.32,10.0,Calm,Calm,-,N/A,,Partly Cloudy,0,2013-03-07 06:58:00
1:58 AM,36.7,30.7,79,30.32,10.0,Calm,Calm,-,N/A,,Overcast,0,2013-03-07 07:58:00
2:58 AM,35.4,31.5,85,30.32,10.0,Calm,Calm,-,N/A,,Overcast,0,2013-03-07 08:58:00
3:58 AM,36.0,32.4,87,30.32,10.0,Calm,Calm,-,N/A,,Overcast,30,2013-03-07 09:58:00
4:58 AM,36.7,32.5,85,30.35,10.0,Calm,Calm,-,N/A,,Mostly Cloudy,0,2013-03-07 10:58:00
5:58 AM,35.8,32.4,87,30.37,10.0,ENE,2.3,-,N/A,,Overcast,60,2013-03-07 11:58:00
6:58 AM,36.3,31.8,84,30.37,10.0,East,2.3,-,N/A,,Mostly Cloudy,90,2013-03-07 12:58:00
7:58 AM,38.3,32.5,80,30.40,10.0,Variable,2.3,-,N/A,,Mostly Cloudy,0,2013-03-07 13:58:00
8:58 AM,42.8,32.2,66,30.40,10.0,East,6.9,-,N/A,,Clear,90,2013-03-07 14:58:00
9:58 AM,45.7,31.1,57,30.40,10.0,ESE,9.2,-,N/A,,Clear,120,2013-03-07 15:58:00
10:58 AM,48.0,31.3,52,30.40,10.0,Variable,5.8,-,N/A,,Clear,0,2013-03-07 16:58:00
11:58 AM,50.4,30.9,47,30.39,10.0,Variable,5.8,-,N/A,,Clear,0,2013-03-07 17:58:00
12:58 PM,52.2,31.6,46,30.35,10.0,SSE,6.9,-,N/A,,Clear,150,2013-03-07 18:58:00
1:58 PM,54.1,32.4,44,30.32,10.0,Variable,5.8,-,N/A,,Clear,0,2013-03-07 19:58:00
2:58 PM,55.2,32.2,42,30.30,10.0,SE,6.9,-,N/A,,Clear,130,2013-03-07 20:58:00
3:58 PM,55.8,32.7,42,30.30,10.0,ESE,6.9,-,N/A,,Clear,120,2013-03-07 21:58:00
4:58 PM,55.0,32.0,42,30.28,10.0,ESE,4.6,-,N/A,,Clear,110,2013-03-07 22:58:00
5:58 PM,52.3,32.2,46,30.27,10.0,SE,4.6,-,N/A,,Clear,130,2013-03-07 23:58:00
6:58 PM,46.2,34.5,64,30.29,10.0,East,2.3,-,N/A,,Clear,80,2013-03-08 00:58:00
7:58 PM,40.8,34.7,79,30.29,10.0,East,2.3,-,N/A,,Clear,90,2013-03-08 01:58:00
8:58 PM,43.5,33.6,68,30.29,10.0,East,4.6,-,N/A,,Clear,90,2013-03-08 02:58:00
9:58 PM,41.5,33.8,74,30.29,10.0,East,2.3,-,N/A,,Clear,90,2013-03-08 03:58:00
10:58 PM,37.2,32.7,84,30.30,10.0,East,1.2,-,N/A,,Clear,80,2013-03-08 04:58:00
11:58 PM,35.8,32.0,86,30.30,10.0,ENE,1.2,-,N/A,,Clear,70,2013-03-08 05:58:00